Location: ????????
(55.4717°N, 39.1821°E)
Time: 23:32:23
(UTC+00:00)

DMSP 5D-3 F18 (USA 210) - Visible Passes

Search period start: 15 February 2026 00:00
Search period end: 25 February 2026 00:00
Orbit: 836 x 850 km, 98.9° (Epoch: 15 February)

Date Brightness Start Highest point End Pass type
(mag) Time Alt. Az. Time Alt. Az. Time Alt. Az.
15 Feb 6.8 00:47:42 10° NE 00:51:58 23° E 00:56:12 10° SE visible
15 Feb 4.6 02:27:36 10° NNE 02:33:08 80° WNW 02:38:37 10° SSW visible
16 Feb 7.1 00:33:57 10° NE 00:37:39 18° E 00:41:20 10° SE visible
16 Feb 4.7 02:13:29 10° NNE 02:19:02 84° ESE 02:24:32 10° SSW visible
16 Feb 5.8 03:54:39 10° N 03:59:01 25° NW 04:03:22 10° WSW visible
17 Feb 7.4 00:20:24 10° NE 00:23:18 14° E 00:26:11 10° ESE visible
17 Feb 5.0 01:59:22 10° NNE 02:04:54 69° ESE 02:10:21 10° S visible
17 Feb 5.5 03:40:23 10° N 03:45:04 29° NW 03:49:43 10° WSW visible
18 Feb 7.5 00:07:23 10° ENE 00:08:55 11° E 00:10:27 10° E visible
18 Feb 5.3 01:45:18 10° NNE 01:50:44 55° ESE 01:56:05 10° S visible
18 Feb 5.3 03:26:09 10° N 03:31:05 35° WNW 03:36:00 10° WSW visible
19 Feb 5.7 01:31:16 10° NNE 01:36:32 44° E 01:41:44 10° S visible
19 Feb 5.1 03:11:56 10° N 03:17:05 42° WNW 03:22:12 10° SW visible
20 Feb 6.1 01:17:16 10° NNE 01:22:18 35° E 01:27:18 10° SSE visible
20 Feb 4.9 02:57:44 10° N 03:03:04 52° WNW 03:08:20 10° SW visible
21 Feb 6.5 01:03:20 10° NNE 01:08:04 28° E 01:12:44 10° SSE visible
21 Feb 4.7 02:43:34 10° NNE 02:49:00 63° WNW 02:54:23 10° SSW visible
22 Feb 6.8 00:49:27 10° NE 00:53:46 23° E 00:58:02 10° SE visible
22 Feb 4.6 02:29:24 10° NNE 02:34:55 78° WNW 02:40:23 10° SSW visible
23 Feb 7.1 00:35:42 10° NE 00:39:27 18° E 00:43:11 10° SE visible
23 Feb 4.7 02:15:16 10° NNE 02:20:49 86° ESE 02:26:17 10° SSW visible
24 Feb 7.4 00:22:07 10° NE 00:25:06 15° E 00:28:03 10° ESE visible
24 Feb 4.9 02:01:10 10° NNE 02:06:40 70° ESE 02:12:07 10° S visible
24 Feb 5.6 03:42:11 10° N 03:46:50 29° NW 03:51:26 10° WSW visible
